Time,TemperatureF,DewpointF,PressureIn,WindDirection,WindDirectionDegrees,WindSpeedMPH,WindSpeedGustMPH,Humidity,HourlyPrecipIn,Conditions,Clouds,dailyrainin,SoftwareType,DateUTC
2013-01-09 00:01:00,29.5,25.8,29.98,West,280,0.0,5.0,86,0.00,,---,0.00,VWS V14.01,2013-01-09 06:01:00,
2013-01-09 00:06:00,29.5,25.8,29.98,WNW,285,1.0,5.0,86,0.00,,---,0.00,VWS V14.01,2013-01-09 06:06:00,
2013-01-09 00:11:00,29.6,26.2,29.98,SSW,197,4.0,5.0,87,0.00,,---,0.00,VWS V14.01,2013-01-09 06:11:00,
2013-01-09 00:16:00,29.6,26.2,29.98,West,268,1.0,6.0,87,0.00,,---,0.00,VWS V14.01,2013-01-09 06:16:00,
2013-01-09 00:21:00,29.7,26.0,29.98,WSW,255,1.0,6.0,86,0.00,,---,0.00,VWS V14.01,2013-01-09 06:21:00,
2013-01-09 00:26:00,29.8,26.4,29.99,West,277,1.0,7.0,87,0.00,,---,0.00,VWS V14.01,2013-01-09 06:26:00,
2013-01-09 00:31:00,29.8,26.1,29.98,WSW,240,1.0,4.0,86,0.00,,---,0.00,VWS V14.01,2013-01-09 06:31:00,
2013-01-09 00:36:00,29.9,26.2,29.99,WSW,254,0.0,4.0,86,0.00,,---,0.00,VWS V14.01,2013-01-09 06:36:00,
2013-01-09 00:41:00,29.9,26.2,29.99,West,259,1.0,4.0,86,0.00,,---,0.00,VWS V14.01,2013-01-09 06:41:00,
2013-01-09 00:46:00,30.0,26.3,30.00,West,265,1.0,5.0,86,0.00,,---,0.00,VWS V14.01,2013-01-09 06:46:00,
2013-01-09 00:51:00,30.1,26.4,30.00,SSW,211,2.0,5.0,86,0.00,,---,0.00,VWS V14.01,2013-01-09 06:51:00,
2013-01-09 00:56:00,30.2,26.5,30.00,WSW,248,1.0,5.0,86,0.00,,---,0.00,VWS V14.01,2013-01-09 06:56:00,
2013-01-09 01:01:00,30.3,26.6,30.00,West,264,2.0,7.0,86,0.00,,---,0.00,VWS V14.01,2013-01-09 07:01:00,
2013-01-09 01:06:00,30.3,26.6,30.00,WSW,243,1.0,7.0,86,0.00,,---,0.00,VWS V14.01,2013-01-09 07:06:00,
2013-01-09 01:11:00,30.4,26.7,30.01,WNW,286,3.0,7.0,86,0.00,,---,0.00,VWS V14.01,2013-01-09 07:11:00,
2013-01-09 01:16:00,30.6,26.6,30.01,West,264,2.0,6.0,85,0.00,,---,0.00,VWS V14.01,2013-01-09 07:16:00,
2013-01-09 01:21:00,30.7,26.7,30.01,SW,226,1.0,7.0,85,0.00,,---,0.00,VWS V14.01,2013-01-09 07:21:00,
2013-01-09 01:26:00,30.8,26.8,30.01,SW,233,4.0,7.0,85,0.00,,---,0.00,VWS V14.01,2013-01-09 07:26:00,
2013-01-09 01:31:00,31.0,27.0,30.00,SSE,161,2.0,3.0,85,0.00,,---,0.00,VWS V14.01,2013-01-09 07:31:00,
2013-01-09 01:36:00,31.0,26.7,30.01,West,265,4.0,6.0,84,0.00,,---,0.00,VWS V14.01,2013-01-09 07:36:00,
2013-01-09 01:41:00,31.1,26.8,30.01,West,265,1.0,6.0,84,0.00,,---,0.00,VWS V14.01,2013-01-09 07:41:00,
2013-01-09 01:46:00,31.0,26.7,30.01,West,281,2.0,3.0,84,0.00,,---,0.00,VWS V14.01,2013-01-09 07:46:00,
2013-01-09 01:51:00,30.9,26.6,30.01,West,272,0.0,5.0,84,0.00,,---,0.00,VWS V14.01,2013-01-09 07:51:00,
2013-01-09 01:56:00,30.9,26.6,30.01,WSW,250,0.0,5.0,84,0.00,,---,0.00,VWS V14.01,2013-01-09 07:56:00,
2013-01-09 02:01:00,30.8,26.5,30.00,SW,233,1.0,3.0,84,0.00,,---,0.00,VWS V14.01,2013-01-09 08:01:00,
2013-01-09 02:06:00,30.7,26.5,30.01,SSW,205,1.0,5.0,84,0.00,,---,0.00,VWS V14.01,2013-01-09 08:06:00,
2013-01-09 02:11:00,30.6,26.4,30.01,WSW,245,1.0,5.0,84,0.00,,---,0.00,VWS V14.01,2013-01-09 08:11:00,
2013-01-09 02:16:00,30.6,26.4,30.01,WSW,237,2.0,5.0,84,0.00,,---,0.00,VWS V14.01,2013-01-09 08:16:00,
2013-01-09 02:21:00,30.4,26.4,30.01,WSW,240,1.0,6.0,85,0.00,,---,0.00,VWS V14.01,2013-01-09 08:21:00,
2013-01-09 02:26:00,30.2,26.2,30.01,West,261,1.0,6.0,85,0.00,,---,0.00,VWS V14.01,2013-01-09 08:26:00,
2013-01-09 02:31:00,30.1,26.4,30.01,West,277,2.0,4.0,86,0.00,,---,0.00,VWS V14.01,2013-01-09 08:31:00,
2013-01-09 02:36:00,30.2,26.5,30.01,West,260,3.0,5.0,86,0.00,,---,0.00,VWS V14.01,2013-01-09 08:36:00,
2013-01-09 02:41:00,30.1,26.4,30.01,WSW,255,1.0,5.0,86,0.00,,---,0.00,VWS V14.01,2013-01-09 08:41:00,
2013-01-09 02:46:00,30.1,26.7,30.01,West,259,2.0,6.0,87,0.00,,---,0.00,VWS V14.01,2013-01-09 08:46:00,
2013-01-09 02:51:00,30.1,26.7,30.02,WSW,243,3.0,6.0,87,0.00,,---,0.00,VWS V14.01,2013-01-09 08:51:00,
2013-01-09 02:56:00,30.0,26.6,30.01,West,277,0.0,6.0,87,0.00,,---,0.00,VWS V14.01,2013-01-09 08:56:00,
2013-01-09 03:01:00,30.0,26.6,30.02,West,276,0.0,4.0,87,0.00,,---,0.00,VWS V14.01,2013-01-09 09:01:00,
2013-01-09 03:06:00,29.9,26.5,30.02,West,261,1.0,5.0,87,0.00,,---,0.00,VWS V14.01,2013-01-09 09:06:00,
2013-01-09 03:11:00,29.9,26.5,30.01,West,261,1.0,5.0,87,0.00,,---,0.00,VWS V14.01,2013-01-09 09:11:00,
2013-01-09 03:16:00,29.9,26.5,30.01,WSW,255,1.0,5.0,87,0.00,,---,0.00,VWS V14.01,2013-01-09 09:16:00,
2013-01-09 03:21:00,29.8,26.7,30.02,SSW,201,2.0,5.0,88,0.00,,---,0.00,VWS V14.01,2013-01-09 09:21:00,
2013-01-09 03:26:00,30.1,27.0,30.02,WNW,286,1.0,7.0,88,0.00,,---,0.00,VWS V14.01,2013-01-09 09:26:00,
2013-01-09 03:31:00,30.2,27.1,30.02,SW,219,2.0,4.0,88,0.00,,---,0.00,VWS V14.01,2013-01-09 09:31:00,
2013-01-09 03:36:00,30.5,27.4,30.02,WSW,258,1.0,6.0,88,0.00,,---,0.00,VWS V14.01,2013-01-09 09:36:00,
2013-01-09 03:41:00,30.7,27.3,30.02,WNW,291,1.0,10.0,87,0.00,,---,0.00,VWS V14.01,2013-01-09 09:41:00,
2013-01-09 03:46:00,30.9,27.5,30.03,West,269,2.0,6.0,87,0.00,,---,0.00,VWS V14.01,2013-01-09 09:46:00,
2013-01-09 03:51:00,31.1,27.4,30.03,SW,233,3.0,7.0,86,0.00,,---,0.00,VWS V14.01,2013-01-09 09:51:00,
2013-01-09 03:56:00,31.4,27.7,30.03,SW,230,4.0,8.0,86,0.00,,---,0.00,VWS V14.01,2013-01-09 09:56:00,
2013-01-09 04:01:00,31.8,27.5,30.03,WSW,253,4.0,9.0,84,0.00,,---,0.00,VWS V14.01,2013-01-09 10:01:00,
2013-01-09 04:06:00,31.8,27.2,30.03,WSW,258,2.0,9.0,83,0.00,,---,0.00,VWS V14.01,2013-01-09 10:06:00,
2013-01-09 04:11:00,31.9,27.3,30.04,WNW,296,2.0,10.0,83,0.00,,---,0.00,VWS V14.01,2013-01-09 10:11:00,
2013-01-09 04:16:00,31.8,27.2,30.03,SW,230,3.0,5.0,83,0.00,,---,0.00,VWS V14.01,2013-01-09 10:16:00,
2013-01-09 04:21:00,31.8,27.2,30.04,West,269,3.0,7.0,83,0.00,,---,0.00,VWS V14.01,2013-01-09 10:21:00,
2013-01-09 04:26:00,31.8,27.2,30.04,WSW,255,3.0,12.0,83,0.00,,---,0.00,VWS V14.01,2013-01-09 10:26:00,
2013-01-09 04:31:00,32.0,27.1,30.04,West,263,1.0,7.0,82,0.00,,---,0.00,VWS V14.01,2013-01-09 10:31:00,
2013-01-09 04:36:00,32.1,27.2,30.04,WSW,245,4.0,12.0,82,0.00,,---,0.00,VWS V14.01,2013-01-09 10:36:00,
2013-01-09 04:41:00,32.3,27.1,30.05,NW,320,1.0,13.0,81,0.00,,---,0.00,VWS V14.01,2013-01-09 10:41:00,
2013-01-09 04:46:00,32.4,26.9,30.05,North,3,2.0,11.0,80,0.00,,---,0.00,VWS V14.01,2013-01-09 10:46:00,
2013-01-09 04:51:00,32.5,27.0,30.05,NW,308,2.0,11.0,80,0.00,,---,0.00,VWS V14.01,2013-01-09 10:51:00,
2013-01-09 04:56:00,32.8,27.0,30.05,SW,227,6.0,11.0,79,0.00,,---,0.00,VWS V14.01,2013-01-09 10:56:00,
2013-01-09 05:01:00,32.9,26.8,30.05,WNW,296,2.0,8.0,78,0.00,,---,0.00,VWS V14.01,2013-01-09 11:01:00,
2013-01-09 05:06:00,32.9,27.1,30.05,NW,311,1.0,10.0,79,0.00,,---,0.00,VWS V14.01,2013-01-09 11:06:00,
2013-01-09 05:11:00,33.0,27.2,30.06,SSE,165,6.0,12.0,79,0.00,,---,0.00,VWS V14.01,2013-01-09 11:11:00,
2013-01-09 05:16:00,33.0,26.9,30.06,ENE,74,2.0,9.0,78,0.00,,---,0.00,VWS V14.01,2013-01-09 11:16:00,
2013-01-09 05:21:00,32.9,27.1,30.06,NE,36,4.0,9.0,79,0.00,,---,0.00,VWS V14.01,2013-01-09 11:21:00,
2013-01-09 05:26:00,32.9,27.1,30.06,SW,227,5.0,10.0,79,0.00,,---,0.00,VWS V14.01,2013-01-09 11:26:00,
2013-01-09 05:31:00,32.9,26.8,30.07,NW,311,3.0,14.0,78,0.00,,---,0.00,VWS V14.01,2013-01-09 11:31:00,
2013-01-09 05:36:00,32.9,26.8,30.07,SW,233,2.0,14.0,78,0.00,,---,0.00,VWS V14.01,2013-01-09 11:36:00,
2013-01-09 05:41:00,32.8,26.7,30.07,WSW,255,7.0,14.0,78,0.00,,---,0.00,VWS V14.01,2013-01-09 11:41:00,
2013-01-09 05:46:00,32.9,26.8,30.08,North,355,4.0,12.0,78,0.00,,---,0.00,VWS V14.01,2013-01-09 11:46:00,
2013-01-09 05:51:00,32.9,26.5,30.08,SSW,208,9.0,12.0,77,0.00,,---,0.00,VWS V14.01,2013-01-09 11:51:00,
2013-01-09 05:56:00,32.8,26.4,30.08,SW,222,5.0,12.0,77,0.00,,---,0.00,VWS V14.01,2013-01-09 11:56:00,
2013-01-09 06:01:00,32.8,26.4,30.08,WNW,287,2.0,18.0,77,0.00,,---,0.00,VWS V14.01,2013-01-09 12:01:00,
2013-01-09 06:06:00,32.9,26.2,30.09,West,276,5.0,18.0,76,0.00,,---,0.00,VWS V14.01,2013-01-09 12:06:00,
2013-01-09 06:11:00,32.9,25.9,30.09,ESE,109,4.0,18.0,75,0.00,,---,0.00,VWS V14.01,2013-01-09 12:11:00,
2013-01-09 06:16:00,32.9,25.9,30.09,West,271,6.0,13.0,75,0.00,,---,0.00,VWS V14.01,2013-01-09 12:16:00,
2013-01-09 06:21:00,32.9,25.5,30.10,West,280,9.0,18.0,74,0.00,,---,0.00,VWS V14.01,2013-01-09 12:21:00,
2013-01-09 06:26:00,32.8,25.4,30.10,WSW,248,4.0,18.0,74,0.00,,---,0.00,VWS V14.01,2013-01-09 12:26:00,
2013-01-09 06:31:00,32.7,25.3,30.10,NNW,346,4.0,14.0,74,0.00,,---,0.00,VWS V14.01,2013-01-09 12:31:00,
2013-01-09 06:36:00,32.7,25.0,30.11,West,269,6.0,14.0,73,0.00,,---,0.00,VWS V14.01,2013-01-09 12:36:00,
2013-01-09 06:41:00,32.6,24.9,30.11,SW,230,5.0,14.0,73,0.00,,---,0.00,VWS V14.01,2013-01-09 12:41:00,
2013-01-09 06:46:00,32.4,24.7,30.12,WNW,285,3.0,11.0,73,0.00,,---,0.00,VWS V14.01,2013-01-09 12:46:00,
2013-01-09 06:51:00,32.4,24.7,30.12,NNW,331,4.0,13.0,73,0.00,,---,0.00,VWS V14.01,2013-01-09 12:51:00,
2013-01-09 06:56:00,32.3,24.6,30.12,WNW,293,7.0,13.0,73,0.00,,---,0.00,VWS V14.01,2013-01-09 12:56:00,
2013-01-09 07:01:00,32.2,24.5,30.13,North,353,4.0,16.0,73,0.00,,---,0.00,VWS V14.01,2013-01-09 13:01:00,
2013-01-09 07:06:00,32.1,24.4,30.13,WNW,301,4.0,16.0,73,0.00,,---,0.00,VWS V14.01,2013-01-09 13:06:00,
2013-01-09 07:11:00,32.1,24.4,30.13,WNW,282,4.0,16.0,73,0.00,,---,0.00,VWS V14.01,2013-01-09 13:11:00,
2013-01-09 07:16:00,32.0,24.0,30.13,South,191,3.0,12.0,72,0.00,,---,0.00,VWS V14.01,2013-01-09 13:16:00,
2013-01-09 07:21:00,31.8,23.8,30.13,WNW,293,4.0,13.0,72,0.00,,---,0.00,VWS V14.01,2013-01-09 13:21:00,
2013-01-09 07:26:00,31.7,23.7,30.14,NW,307,1.0,13.0,72,0.00,,---,0.00,VWS V14.01,2013-01-09 13:26:00,
2013-01-09 07:31:00,31.6,23.6,30.14,West,280,3.0,13.0,72,0.00,,---,0.00,VWS V14.01,2013-01-09 13:31:00,
2013-01-09 07:36:00,31.5,23.5,30.14,West,266,4.0,13.0,72,0.00,,---,0.00,VWS V14.01,2013-01-09 13:36:00,
2013-01-09 07:41:00,31.4,23.4,30.15,WSW,239,3.0,13.0,72,0.00,,---,0.00,VWS V14.01,2013-01-09 13:41:00,
2013-01-09 07:46:00,31.3,23.3,30.15,North,3,2.0,11.0,72,0.00,,---,0.00,VWS V14.01,2013-01-09 13:46:00,
2013-01-09 07:51:00,31.1,23.1,30.15,West,268,3.0,11.0,72,0.00,,---,0.00,VWS V14.01,2013-01-09 13:51:00,
2013-01-09 07:56:00,31.0,23.4,30.16,WNW,297,3.0,11.0,73,0.00,,---,0.00,VWS V14.01,2013-01-09 13:56:00,
2013-01-09 08:01:00,30.8,23.2,30.16,WSW,256,4.0,7.0,73,0.00,,---,0.00,VWS V14.01,2013-01-09 14:01:00,
2013-01-09 08:06:00,30.8,23.2,30.16,WSW,258,4.0,12.0,73,0.00,,---,0.00,VWS V14.01,2013-01-09 14:06:00,
2013-01-09 08:11:00,30.7,23.1,30.16,WNW,282,2.0,12.0,73,0.00,,---,0.00,VWS V14.01,2013-01-09 14:11:00,
2013-01-09 08:16:00,30.5,22.9,30.16,NW,304,4.0,6.0,73,0.00,,---,0.00,VWS V14.01,2013-01-09 14:16:00,
2013-01-09 08:21:00,30.4,22.8,30.17,WNW,282,3.0,7.0,73,0.00,,---,0.00,VWS V14.01,2013-01-09 14:21:00,
2013-01-09 08:26:00,30.4,22.8,30.17,WNW,294,3.0,7.0,73,0.00,,---,0.00,VWS V14.01,2013-01-09 14:26:00,
2013-01-09 08:31:00,30.4,22.8,30.18,West,264,3.0,7.0,73,0.00,,---,0.00,VWS V14.01,2013-01-09 14:31:00,
2013-01-09 08:36:00,30.5,22.6,30.18,WNW,285,9.0,10.0,72,0.00,,---,0.00,VWS V14.01,2013-01-09 14:36:00,
2013-01-09 08:41:00,30.5,22.6,30.19,NW,304,5.0,10.0,72,0.00,,---,0.00,VWS V14.01,2013-01-09 14:41:00,
2013-01-09 08:46:00,30.5,22.6,30.19,West,277,1.0,6.0,72,0.00,,---,0.00,VWS V14.01,2013-01-09 14:46:00,
2013-01-09 08:51:00,30.5,22.6,30.19,WSW,245,2.0,7.0,72,0.00,,---,0.00,VWS V14.01,2013-01-09 14:51:00,
2013-01-09 08:56:00,30.6,22.7,30.20,NW,317,2.0,7.0,72,0.00,,---,0.00,VWS V14.01,2013-01-09 14:56:00,
2013-01-09 09:01:00,30.9,22.6,30.21,SSW,209,6.0,7.0,71,0.00,,---,0.00,VWS V14.01,2013-01-09 15:01:00,
2013-01-09 09:06:00,31.1,22.5,30.21,WNW,299,4.0,10.0,70,0.00,,---,0.00,VWS V14.01,2013-01-09 15:06:00,
2013-01-09 09:11:00,31.3,22.7,30.21,WNW,290,4.0,10.0,70,0.00,,---,0.00,VWS V14.01,2013-01-09 15:11:00,
2013-01-09 09:16:00,31.6,23.0,30.21,West,260,3.0,9.0,70,0.00,,---,0.00,VWS V14.01,2013-01-09 15:16:00,
2013-01-09 09:21:00,31.7,22.7,30.21,NNW,335,3.0,10.0,69,0.00,,---,0.00,VWS V14.01,2013-01-09 15:21:00,
2013-01-09 09:26:00,31.8,22.5,30.22,WNW,283,4.0,10.0,68,0.00,,---,0.00,VWS V14.01,2013-01-09 15:26:00,
2013-01-09 09:31:00,32.0,22.6,30.22,West,273,4.0,9.0,68,0.00,,---,0.00,VWS V14.01,2013-01-09 15:31:00,
2013-01-09 09:36:00,32.1,22.8,30.22,WSW,256,4.0,12.0,68,0.00,,---,0.00,VWS V14.01,2013-01-09 15:36:00,
2013-01-09 09:41:00,32.2,22.8,30.23,South,178,5.0,12.0,68,0.00,,---,0.00,VWS V14.01,2013-01-09 15:41:00,
2013-01-09 09:46:00,32.3,22.6,30.23,NW,306,4.0,13.0,67,0.00,,---,0.00,VWS V14.01,2013-01-09 15:46:00,
2013-01-09 09:51:00,32.4,22.3,30.23,North,351,3.0,13.0,66,0.00,,---,0.00,VWS V14.01,2013-01-09 15:51:00,
2013-01-09 09:56:00,32.7,23.0,30.23,WNW,303,3.0,13.0,67,0.00,,---,0.00,VWS V14.01,2013-01-09 15:56:00,
2013-01-09 10:01:00,32.8,22.7,30.23,West,261,3.0,8.0,66,0.00,,---,0.00,VWS V14.01,2013-01-09 16:01:00,
2013-01-09 10:06:00,33.0,22.5,30.23,SW,226,2.0,8.0,65,0.00,,---,0.00,VWS V14.01,2013-01-09 16:06:00,
2013-01-09 10:11:00,33.2,22.4,30.23,NNW,329,2.0,8.0,64,0.00,,---,0.00,VWS V14.01,2013-01-09 16:11:00,
2013-01-09 10:16:00,33.3,22.8,30.23,West,275,4.0,5.0,65,0.00,,---,0.00,VWS V14.01,2013-01-09 16:16:00,
2013-01-09 10:21:00,33.6,23.1,30.24,NW,310,2.0,7.0,65,0.00,,---,0.00,VWS V14.01,2013-01-09 16:21:00,
2013-01-09 10:26:00,33.5,23.0,30.24,WNW,285,2.0,9.0,65,0.00,,---,0.00,VWS V14.01,2013-01-09 16:26:00,
2013-01-09 10:31:00,33.5,23.0,30.24,ESE,121,6.0,9.0,65,0.00,,---,0.00,VWS V14.01,2013-01-09 16:31:00,
2013-01-09 10:36:00,33.6,22.7,30.24,South,185,2.0,9.0,64,0.00,,---,0.00,VWS V14.01,2013-01-09 16:36:00,
2013-01-09 10:41:00,33.6,23.1,30.24,West,267,2.0,9.0,65,0.00,,---,0.00,VWS V14.01,2013-01-09 16:41:00,
2013-01-09 10:46:00,33.8,22.9,30.24,West,270,3.0,7.0,64,0.00,,---,0.00,VWS V14.01,2013-01-09 16:46:00,
2013-01-09 10:51:00,33.9,23.4,30.24,North,355,2.0,7.0,65,0.00,,---,0.00,VWS V14.01,2013-01-09 16:51:00,
2013-01-09 10:56:00,34.3,23.4,30.24,West,270,6.0,9.0,64,0.00,,---,0.00,VWS V14.01,2013-01-09 16:56:00,
2013-01-09 11:01:00,34.2,23.3,30.25,WNW,293,3.0,8.0,64,0.00,,---,0.00,VWS V14.01,2013-01-09 17:01:00,
2013-01-09 11:06:00,34.2,22.9,30.25,West,268,2.0,8.0,63,0.00,,---,0.00,VWS V14.01,2013-01-09 17:06:00,
2013-01-09 11:11:00,34.2,22.9,30.26,West,280,2.0,8.0,63,0.00,,---,0.00,VWS V14.01,2013-01-09 17:11:00,
2013-01-09 11:16:00,34.1,22.8,30.27,West,278,2.0,11.0,63,0.00,,---,0.00,VWS V14.01,2013-01-09 17:16:00,
2013-01-09 11:21:00,34.2,22.9,30.27,NW,313,2.0,11.0,63,0.00,,---,0.00,VWS V14.01,2013-01-09 17:21:00,
2013-01-09 11:26:00,34.4,23.1,30.27,NW,320,4.0,11.0,63,0.00,,---,0.00,VWS V14.01,2013-01-09 17:26:00,
2013-01-09 11:31:00,34.4,23.1,30.27,WSW,253,6.0,7.0,63,0.00,,---,0.00,VWS V14.01,2013-01-09 17:31:00,
2013-01-09 11:36:00,34.2,22.9,30.27,WSW,254,7.0,11.0,63,0.00,,---,0.00,VWS V14.01,2013-01-09 17:36:00,
2013-01-09 11:41:00,34.2,22.9,30.28,WSW,255,4.0,11.0,63,0.00,,---,0.00,VWS V14.01,2013-01-09 17:41:00,
2013-01-09 11:46:00,34.4,23.1,30.28,West,262,1.0,7.0,63,0.00,,---,0.00,VWS V14.01,2013-01-09 17:46:00,
2013-01-09 11:51:00,34.5,22.8,30.28,NW,306,1.0,7.0,62,0.00,,---,0.00,VWS V14.01,2013-01-09 17:51:00,
2013-01-09 11:56:00,34.6,23.3,30.28,SW,219,3.0,9.0,63,0.00,,---,0.00,VWS V14.01,2013-01-09 17:56:00,
2013-01-09 12:01:00,34.6,23.3,30.28,WNW,287,3.0,7.0,63,0.00,,---,0.00,VWS V14.01,2013-01-09 18:01:00,
2013-01-09 12:06:00,34.7,23.0,30.29,South,185,3.0,9.0,62,0.00,,---,0.00,VWS V14.01,2013-01-09 18:06:00,
2013-01-09 12:11:00,34.7,23.0,30.30,West,271,3.0,9.0,62,0.00,,---,0.00,VWS V14.01,2013-01-09 18:11:00,
2013-01-09 12:16:00,35.0,23.7,30.30,WNW,302,6.0,10.0,63,0.00,,---,0.00,VWS V14.01,2013-01-09 18:16:00,
2013-01-09 12:21:00,34.9,22.8,30.30,NW,314,6.0,10.0,61,0.00,,---,0.00,VWS V14.01,2013-01-09 18:21:00,
2013-01-09 12:26:00,34.8,23.5,30.30,SW,216,5.0,10.0,63,0.00,,---,0.00,VWS V14.01,2013-01-09 18:26:00,
2013-01-09 12:31:00,34.7,23.0,30.31,SSW,195,5.0,8.0,62,0.00,,---,0.00,VWS V14.01,2013-01-09 18:31:00,
2013-01-09 12:36:00,34.6,23.3,30.32,SE,145,5.0,13.0,63,0.00,,---,0.00,VWS V14.01,2013-01-09 18:36:00,
2013-01-09 12:41:00,34.5,23.2,30.33,SSW,197,4.0,13.0,63,0.00,,---,0.00,VWS V14.01,2013-01-09 18:41:00,
2013-01-09 12:42:00,34.5,22.8,30.33,SE,144,9.0,9.0,62,0.00,,---,0.00,VWS V14.01,2013-01-09 18:42:00,
2013-01-09 12:44:00,34.4,22.7,30.33,WSW,251,5.0,13.0,62,0.00,,---,0.00,VWS V14.01,2013-01-09 18:44:00,
2013-01-09 12:45:00,34.4,23.1,30.33,WNW,292,4.0,13.0,63,0.00,,---,0.00,VWS V14.01,2013-01-09 18:45:00,
2013-01-09 12:48:00,34.4,23.1,30.33,SW,230,2.0,13.0,63,0.00,,---,0.00,VWS V14.01,2013-01-09 18:48:00,
2013-01-09 12:53:00,34.5,23.2,30.33,WSW,251,3.0,14.0,63,0.00,,---,0.00,VWS V14.01,2013-01-09 18:53:00,
2013-01-09 12:58:00,34.4,23.1,30.33,NNE,20,4.0,15.0,63,0.00,,---,0.00,VWS V14.01,2013-01-09 18:58:00,
2013-01-09 13:03:00,34.2,22.9,30.33,SSW,206,4.0,16.0,63,0.00,,---,0.00,VWS V14.01,2013-01-09 19:03:00,
2013-01-09 13:08:00,34.2,23.3,30.33,WSW,240,4.0,16.0,64,0.00,,---,0.00,VWS V14.01,2013-01-09 19:08:00,
2013-01-09 13:13:00,34.5,23.6,30.34,NW,321,1.0,7.0,64,0.00,,---,0.00,VWS V14.01,2013-01-09 19:13:00,
2013-01-09 13:18:00,34.6,24.1,30.33,NW,317,3.0,8.0,65,0.00,,---,0.00,VWS V14.01,2013-01-09 19:18:00,
2013-01-09 13:23:00,34.5,24.0,30.34,West,280,3.0,10.0,65,0.00,,---,0.00,VWS V14.01,2013-01-09 19:23:00,
2013-01-09 13:28:00,34.4,23.5,30.34,WNW,291,5.0,5.0,64,0.00,,---,0.00,VWS V14.01,2013-01-09 19:28:00,
2013-01-09 13:33:00,34.5,23.6,30.35,West,272,10.0,10.0,64,0.00,,---,0.00,VWS V14.01,2013-01-09 19:33:00,
2013-01-09 13:38:00,34.6,23.7,30.35,SW,236,5.0,11.0,64,0.00,,---,0.00,VWS V14.01,2013-01-09 19:38:00,
2013-01-09 13:43:00,34.7,23.8,30.35,WNW,284,2.0,3.0,64,0.00,,---,0.00,VWS V14.01,2013-01-09 19:43:00,
2013-01-09 13:48:00,34.9,24.0,30.36,WNW,282,4.0,13.0,64,0.00,,---,0.00,VWS V14.01,2013-01-09 19:48:00,
2013-01-09 13:53:00,34.8,23.9,30.37,West,277,5.0,13.0,64,0.00,,---,0.00,VWS V14.01,2013-01-09 19:53:00,
2013-01-09 13:58:00,34.7,23.8,30.36,West,268,4.0,7.0,64,0.00,,---,0.00,VWS V14.01,2013-01-09 19:58:00,
2013-01-09 14:03:00,34.5,23.6,30.36,West,265,4.0,8.0,64,0.00,,---,0.00,VWS V14.01,2013-01-09 20:03:00,
2013-01-09 14:08:00,34.7,23.8,30.37,SW,225,5.0,8.0,64,0.00,,---,0.00,VWS V14.01,2013-01-09 20:08:00,
2013-01-09 14:13:00,34.7,23.8,30.37,West,271,1.0,5.0,64,0.00,,---,0.00,VWS V14.01,2013-01-09 20:13:00,
2013-01-09 14:18:00,34.8,23.9,30.38,SW,232,3.0,6.0,64,0.00,,---,0.00,VWS V14.01,2013-01-09 20:18:00,
2013-01-09 14:23:00,34.5,23.6,30.38,SSW,213,7.0,8.0,64,0.00,,---,0.00,VWS V14.01,2013-01-09 20:23:00,
2013-01-09 14:28:00,34.4,23.5,30.39,WSW,249,5.0,8.0,64,0.00,,---,0.00,VWS V14.01,2013-01-09 20:28:00,
2013-01-09 14:33:00,34.4,23.5,30.39,SW,230,2.0,9.0,64,0.00,,---,0.00,VWS V14.01,2013-01-09 20:33:00,
2013-01-09 14:38:00,34.5,23.6,30.40,WSW,255,5.0,9.0,64,0.00,,---,0.00,VWS V14.01,2013-01-09 20:38:00,
2013-01-09 14:43:00,34.5,23.6,30.40,West,264,6.0,9.0,64,0.00,,---,0.00,VWS V14.01,2013-01-09 20:43:00,
2013-01-09 14:48:00,34.3,23.8,30.40,WSW,239,3.0,9.0,65,0.00,,---,0.00,VWS V14.01,2013-01-09 20:48:00,
2013-01-09 14:53:00,34.3,23.8,30.41,WSW,243,3.0,9.0,65,0.00,,---,0.00,VWS V14.01,2013-01-09 20:53:00,
2013-01-09 14:58:00,34.3,23.8,30.41,NNW,338,0.0,6.0,65,0.00,,---,0.00,VWS V14.01,2013-01-09 20:58:00,
2013-01-09 15:03:00,34.2,23.7,30.40,WNW,285,3.0,11.0,65,0.00,,---,0.00,VWS V14.01,2013-01-09 21:03:00,
2013-01-09 15:08:00,34.2,23.3,30.40,WSW,257,2.0,11.0,64,0.00,,---,0.00,VWS V14.01,2013-01-09 21:08:00,
2013-01-09 15:13:00,34.2,23.7,30.41,WSW,248,3.0,6.0,65,0.00,,---,0.00,VWS V14.01,2013-01-09 21:13:00,
2013-01-09 15:18:00,34.3,23.4,30.41,WNW,284,2.0,6.0,64,0.00,,---,0.00,VWS V14.01,2013-01-09 21:18:00,
2013-01-09 15:23:00,34.3,23.4,30.41,WSW,240,1.0,7.0,64,0.00,,---,0.00,VWS V14.01,2013-01-09 21:23:00,
2013-01-09 15:28:00,34.4,23.5,30.41,WSW,254,0.0,3.0,64,0.00,,---,0.00,VWS V14.01,2013-01-09 21:28:00,
2013-01-09 15:33:00,34.4,23.5,30.41,West,264,3.0,8.0,64,0.00,,---,0.00,VWS V14.01,2013-01-09 21:33:00,
2013-01-09 15:38:00,34.0,23.5,30.41,WSW,245,3.0,8.0,65,0.00,,---,0.00,VWS V14.01,2013-01-09 21:38:00,
2013-01-09 15:43:00,33.8,22.9,30.42,WSW,251,2.0,5.0,64,0.00,,---,0.00,VWS V14.01,2013-01-09 21:43:00,
2013-01-09 15:48:00,33.5,23.0,30.42,West,267,4.0,6.0,65,0.00,,---,0.00,VWS V14.01,2013-01-09 21:48:00,
2013-01-09 15:53:00,33.2,23.1,30.42,SW,230,2.0,8.0,66,0.00,,---,0.00,VWS V14.01,2013-01-09 21:53:00,
2013-01-09 15:58:00,33.2,23.1,30.42,WSW,251,6.0,6.0,66,0.00,,---,0.00,VWS V14.01,2013-01-09 21:58:00,
2013-01-09 16:03:00,33.1,23.0,30.42,East,93,4.0,6.0,66,0.00,,---,0.00,VWS V14.01,2013-01-09 22:03:00,
2013-01-09 16:08:00,32.8,23.1,30.42,WSW,254,1.0,6.0,67,0.00,,---,0.00,VWS V14.01,2013-01-09 22:08:00,
2013-01-09 16:13:00,32.6,23.2,30.42,West,259,1.0,6.0,68,0.00,,---,0.00,VWS V14.01,2013-01-09 22:13:00,
2013-01-09 16:18:00,32.4,23.0,30.42,WNW,282,1.0,6.0,68,0.00,,---,0.00,VWS V14.01,2013-01-09 22:18:00,
2013-01-09 16:23:00,32.2,23.2,30.42,West,268,0.0,6.0,69,0.00,,---,0.00,VWS V14.01,2013-01-09 22:23:00,
2013-01-09 16:28:00,31.9,22.9,30.42,West,268,1.0,1.0,69,0.00,,---,0.00,VWS V14.01,2013-01-09 22:28:00,
2013-01-09 16:33:00,31.7,23.0,30.42,West,267,1.0,2.0,70,0.00,,---,0.00,VWS V14.01,2013-01-09 22:33:00,
2013-01-09 16:38:00,31.5,23.2,30.42,West,276,0.0,3.0,71,0.00,,---,0.00,VWS V14.01,2013-01-09 22:38:00,
2013-01-09 16:43:00,31.3,23.0,30.41,West,263,0.0,1.0,71,0.00,,---,0.00,VWS V14.01,2013-01-09 22:43:00,
2013-01-09 16:48:00,31.1,23.1,30.41,West,263,0.0,1.0,72,0.00,,---,0.00,VWS V14.01,2013-01-09 22:48:00,
2013-01-09 16:53:00,30.7,22.8,30.41,West,262,0.0,1.0,72,0.00,,---,0.00,VWS V14.01,2013-01-09 22:53:00,
2013-01-09 16:58:00,30.3,22.4,30.41,West,263,0.0,0.0,72,0.00,,---,0.00,VWS V14.01,2013-01-09 22:58:00,
2013-01-09 17:03:00,29.8,22.2,30.41,West,262,0.0,0.0,73,0.00,,---,0.00,VWS V14.01,2013-01-09 23:03:00,
2013-01-09 17:08:00,29.2,22.0,30.40,West,262,0.0,0.0,74,0.00,,---,0.00,VWS V14.01,2013-01-09 23:08:00,
2013-01-09 17:13:00,28.9,21.7,30.40,West,263,0.0,0.0,74,0.00,,---,0.00,VWS V14.01,2013-01-09 23:13:00,
2013-01-09 17:18:00,28.4,21.5,30.41,West,263,0.0,0.0,75,0.00,,---,0.00,VWS V14.01,2013-01-09 23:18:00,
2013-01-09 17:23:00,27.8,20.9,30.41,West,262,0.0,0.0,75,0.00,,---,0.00,VWS V14.01,2013-01-09 23:23:00,
2013-01-09 17:28:00,27.3,20.8,30.41,West,262,0.0,0.0,76,0.00,,---,0.00,VWS V14.01,2013-01-09 23:28:00,
2013-01-09 17:33:00,26.8,20.3,30.41,West,262,0.0,0.0,76,0.00,,---,0.00,VWS V14.01,2013-01-09 23:33:00,
2013-01-09 17:38:00,26.3,20.1,30.40,West,262,0.0,0.0,77,0.00,,---,0.00,VWS V14.01,2013-01-09 23:38:00,
2013-01-09 17:43:00,26.2,20.6,30.40,West,262,0.0,0.0,79,0.00,,---,0.00,VWS V14.01,2013-01-09 23:43:00,
2013-01-09 17:48:00,26.1,21.1,30.41,WSW,248,1.0,2.0,81,0.00,,---,0.00,VWS V14.01,2013-01-09 23:48:00,
2013-01-09 17:53:00,26.3,21.3,30.41,WSW,250,0.0,2.0,81,0.00,,---,0.00,VWS V14.01,2013-01-09 23:53:00,
2013-01-09 17:58:00,26.1,21.1,30.41,WSW,250,0.0,0.0,81,0.00,,---,0.00,VWS V14.01,2013-01-09 23:58:00,
2013-01-09 18:03:00,25.8,20.8,30.41,WSW,250,0.0,0.0,81,0.00,,---,0.00,VWS V14.01,2013-01-10 00:03:00,
2013-01-09 18:08:00,25.8,21.1,30.41,WSW,250,0.0,0.0,82,0.00,,---,0.00,VWS V14.01,2013-01-10 00:08:00,
2013-01-09 18:13:00,25.7,21.0,30.40,WSW,250,0.0,0.0,82,0.00,,---,0.00,VWS V14.01,2013-01-10 00:13:00,
2013-01-09 18:18:00,25.6,20.9,30.40,WSW,250,0.0,0.0,82,0.00,,---,0.00,VWS V14.01,2013-01-10 00:18:00,
2013-01-09 18:23:00,25.6,21.2,30.40,WSW,250,0.0,0.0,83,0.00,,---,0.00,VWS V14.01,2013-01-10 00:23:00,
2013-01-09 18:28:00,25.3,20.6,30.39,WSW,250,0.0,0.0,82,0.00,,---,0.00,VWS V14.01,2013-01-10 00:28:00,
2013-01-09 18:33:00,25.1,20.7,30.39,WSW,249,0.0,0.0,83,0.00,,---,0.00,VWS V14.01,2013-01-10 00:33:00,
2013-01-09 18:38:00,25.3,21.1,30.40,WSW,249,0.0,1.0,84,0.00,,---,0.00,VWS V14.01,2013-01-10 00:38:00,
2013-01-09 18:43:00,25.3,21.1,30.40,WSW,250,0.0,0.0,84,0.00,,---,0.00,VWS V14.01,2013-01-10 00:43:00,
2013-01-09 18:48:00,25.3,21.1,30.39,WSW,250,0.0,0.0,84,0.00,,---,0.00,VWS V14.01,2013-01-10 00:48:00,
2013-01-09 18:53:00,25.2,21.0,30.40,WSW,249,0.0,0.0,84,0.00,,---,0.00,VWS V14.01,2013-01-10 00:53:00,
2013-01-09 18:58:00,25.1,21.0,30.40,WSW,250,0.0,0.0,84,0.00,,---,0.00,VWS V14.01,2013-01-10 00:58:00,
2013-01-09 19:03:00,25.1,21.0,30.39,WSW,249,0.0,0.0,84,0.00,,---,0.00,VWS V14.01,2013-01-10 01:03:00,
2013-01-09 19:08:00,25.1,21.2,30.39,WSW,250,0.0,0.0,85,0.00,,---,0.00,VWS V14.01,2013-01-10 01:08:00,
2013-01-09 19:13:00,25.0,21.1,30.39,WSW,250,0.0,0.0,85,0.00,,---,0.00,VWS V14.01,2013-01-10 01:13:00,
2013-01-09 19:18:00,24.8,20.9,30.39,WSW,250,0.0,0.0,85,0.00,,---,0.00,VWS V14.01,2013-01-10 01:18:00,
2013-01-09 19:23:00,25.0,21.1,30.39,WSW,250,0.0,0.0,85,0.00,,---,0.00,VWS V14.01,2013-01-10 01:23:00,
2013-01-09 19:28:00,25.3,21.7,30.39,WSW,250,0.0,0.0,86,0.00,,---,0.00,VWS V14.01,2013-01-10 01:28:00,
2013-01-09 19:33:00,25.3,21.4,30.39,WSW,250,0.0,0.0,85,0.00,,---,0.00,VWS V14.01,2013-01-10 01:33:00,
2013-01-09 19:38:00,24.9,21.0,30.38,WSW,249,0.0,0.0,85,0.00,,---,0.00,VWS V14.01,2013-01-10 01:38:00,
2013-01-09 19:43:00,24.7,20.8,30.39,WSW,250,0.0,0.0,85,0.00,,---,0.00,VWS V14.01,2013-01-10 01:43:00,
2013-01-09 19:48:00,24.8,21.2,30.39,WSW,250,0.0,0.0,86,0.00,,---,0.00,VWS V14.01,2013-01-10 01:48:00,
2013-01-09 19:53:00,24.7,20.8,30.40,WSW,250,0.0,0.0,85,0.00,,---,0.00,VWS V14.01,2013-01-10 01:53:00,
2013-01-09 19:58:00,24.6,21.0,30.40,WSW,249,0.0,0.0,86,0.00,,---,0.00,VWS V14.01,2013-01-10 01:58:00,
2013-01-09 20:03:00,24.4,20.8,30.39,WSW,250,0.0,0.0,86,0.00,,---,0.00,VWS V14.01,2013-01-10 02:03:00,
2013-01-09 20:08:00,24.3,20.7,30.39,WSW,250,0.0,0.0,86,0.00,,---,0.00,VWS V14.01,2013-01-10 02:08:00,
2013-01-09 20:13:00,24.2,20.6,30.38,WSW,249,0.0,0.0,86,0.00,,---,0.00,VWS V14.01,2013-01-10 02:13:00,
2013-01-09 20:18:00,24.3,20.7,30.38,WSW,249,0.0,0.0,86,0.00,,---,0.00,VWS V14.01,2013-01-10 02:18:00,
2013-01-09 20:23:00,24.2,20.6,30.37,WSW,249,0.0,0.0,86,0.00,,---,0.00,VWS V14.01,2013-01-10 02:23:00,
2013-01-09 20:28:00,23.9,20.3,30.37,WSW,249,0.0,0.0,86,0.00,,---,0.00,VWS V14.01,2013-01-10 02:28:00,
2013-01-09 20:33:00,24.1,20.8,30.38,WSW,250,0.0,0.0,87,0.00,,---,0.00,VWS V14.01,2013-01-10 02:33:00,
2013-01-09 20:38:00,24.6,21.6,30.38,WSW,250,0.0,0.0,88,0.00,,---,0.00,VWS V14.01,2013-01-10 02:38:00,
2013-01-09 20:43:00,24.5,21.2,30.38,WSW,250,0.0,0.0,87,0.00,,---,0.00,VWS V14.01,2013-01-10 02:43:00,
2013-01-09 20:48:00,24.2,20.9,30.38,WSW,249,0.0,0.0,87,0.00,,---,0.00,VWS V14.01,2013-01-10 02:48:00,
2013-01-09 20:53:00,24.0,20.4,30.38,WSW,250,0.0,0.0,86,0.00,,---,0.00,VWS V14.01,2013-01-10 02:53:00,
2013-01-09 20:58:00,23.8,20.5,30.38,WSW,250,0.0,0.0,87,0.00,,---,0.00,VWS V14.01,2013-01-10 02:58:00,
2013-01-09 21:03:00,23.7,20.4,30.38,WSW,249,0.0,0.0,87,0.00,,---,0.00,VWS V14.01,2013-01-10 03:03:00,
2013-01-09 21:08:00,23.4,20.1,30.38,WSW,250,0.0,0.0,87,0.00,,---,0.00,VWS V14.01,2013-01-10 03:08:00,
2013-01-09 21:13:00,23.4,20.4,30.38,SSW,206,1.0,3.0,88,0.00,,---,0.00,VWS V14.01,2013-01-10 03:13:00,
2013-01-09 21:18:00,24.2,21.7,30.38,West,260,3.0,3.0,90,0.00,,---,0.00,VWS V14.01,2013-01-10 03:18:00,
2013-01-09 21:23:00,25.1,22.6,30.38,SE,126,0.0,3.0,90,0.00,,---,0.00,VWS V14.01,2013-01-10 03:23:00,
2013-01-09 21:28:00,25.7,22.9,30.38,SE,126,0.0,0.0,89,0.00,,---,0.00,VWS V14.01,2013-01-10 03:28:00,
2013-01-09 21:33:00,25.9,22.8,30.38,SE,138,0.0,2.0,88,0.00,,---,0.00,VWS V14.01,2013-01-10 03:33:00,
2013-01-09 21:38:00,26.1,22.8,30.38,SE,138,0.0,2.0,87,0.00,,---,0.00,VWS V14.01,2013-01-10 03:38:00,
2013-01-09 21:43:00,26.0,22.4,30.37,SE,138,0.0,0.0,86,0.00,,---,0.00,VWS V14.01,2013-01-10 03:43:00,
2013-01-09 21:48:00,25.6,21.7,30.37,SE,138,0.0,0.0,85,0.00,,---,0.00,VWS V14.01,2013-01-10 03:48:00,
2013-01-09 21:53:00,25.1,21.2,30.36,SE,138,0.0,0.0,85,0.00,,---,0.00,VWS V14.01,2013-01-10 03:53:00,
2013-01-09 21:58:00,24.6,20.7,30.36,SE,138,0.0,0.0,85,0.00,,---,0.00,VWS V14.01,2013-01-10 03:58:00,
2013-01-09 22:03:00,24.1,20.2,30.37,SE,138,0.0,0.0,85,0.00,,---,0.00,VWS V14.01,2013-01-10 04:03:00,
2013-01-09 22:08:00,23.6,19.8,30.37,SE,138,0.0,0.0,85,0.00,,---,0.00,VWS V14.01,2013-01-10 04:08:00,
2013-01-09 22:13:00,23.3,19.7,30.36,SE,138,0.0,0.0,86,0.00,,---,0.00,VWS V14.01,2013-01-10 04:13:00,
2013-01-09 22:18:00,23.2,19.9,30.36,SE,138,0.0,0.0,87,0.00,,---,0.00,VWS V14.01,2013-01-10 04:18:00,
2013-01-09 22:23:00,22.9,19.4,30.36,SE,138,0.0,0.0,86,0.00,,---,0.00,VWS V14.01,2013-01-10 04:23:00,
2013-01-09 22:28:00,22.6,19.3,30.36,SE,138,0.0,0.0,87,0.00,,---,0.00,VWS V14.01,2013-01-10 04:28:00,
2013-01-09 22:33:00,22.5,19.5,30.36,SE,138,0.0,0.0,88,0.00,,---,0.00,VWS V14.01,2013-01-10 04:33:00,
2013-01-09 22:38:00,22.4,19.4,30.37,SE,138,0.0,0.0,88,0.00,,---,0.00,VWS V14.01,2013-01-10 04:38:00,
2013-01-09 22:43:00,22.6,19.9,30.37,SE,138,0.0,0.0,89,0.00,,---,0.00,VWS V14.01,2013-01-10 04:43:00,
2013-01-09 22:48:00,22.7,20.0,30.37,SE,137,0.0,0.0,89,0.00,,---,0.00,VWS V14.01,2013-01-10 04:48:00,
2013-01-09 22:53:00,23.0,20.2,30.37,ESE,116,0.0,2.0,89,0.00,,---,0.00,VWS V14.01,2013-01-10 04:53:00,
2013-01-09 22:58:00,22.9,20.1,30.37,ESE,116,0.0,0.0,89,0.00,,---,0.00,VWS V14.01,2013-01-10 04:58:00,
2013-01-09 23:00:00,22.8,20.0,30.37,ESE,116,0.0,0.0,89,0.00,,---,0.00,VWS V14.01,2013-01-10 05:00:00,
2013-01-09 23:01:00,22.8,20.0,30.37,ESE,116,0.0,1.0,89,0.00,,---,0.00,VWS V14.01,2013-01-10 05:01:00,
2013-01-09 23:06:00,22.9,20.1,30.37,ESE,116,0.0,1.0,89,0.00,,---,0.00,VWS V14.01,2013-01-10 05:06:00,
2013-01-09 23:11:00,23.0,20.2,30.37,ESE,116,0.0,1.0,89,0.00,,---,0.00,VWS V14.01,2013-01-10 05:11:00,
2013-01-09 23:16:00,22.9,20.1,30.37,ESE,115,0.0,0.0,89,0.00,,---,0.00,VWS V14.01,2013-01-10 05:16:00,
2013-01-09 23:21:00,22.6,19.9,30.37,ESE,116,0.0,0.0,89,0.00,,---,0.00,VWS V14.01,2013-01-10 05:21:00,
2013-01-09 23:26:00,22.5,19.8,30.37,ESE,116,0.0,0.0,89,0.00,,---,0.00,VWS V14.01,2013-01-10 05:26:00,
2013-01-09 23:31:00,23.1,20.6,30.37,ESE,109,0.0,2.0,90,0.00,,---,0.00,VWS V14.01,2013-01-10 05:31:00,
2013-01-09 23:36:00,23.7,21.2,30.37,East,86,0.0,3.0,90,0.00,,---,0.00,VWS V14.01,2013-01-10 05:36:00,
2013-01-09 23:41:00,23.9,21.1,30.38,East,88,0.0,3.0,89,0.00,,---,0.00,VWS V14.01,2013-01-10 05:41:00,
2013-01-09 23:46:00,24.2,21.4,30.37,ESE,102,0.0,4.0,89,0.00,,---,0.00,VWS V14.01,2013-01-10 05:46:00,
2013-01-09 23:51:00,24.4,21.4,30.37,East,95,0.0,4.0,88,0.00,,---,0.00,VWS V14.01,2013-01-10 05:51:00,
2013-01-09 23:56:00,24.5,21.2,30.37,ENE,78,1.0,4.0,87,0.00,,---,0.00,VWS V14.01,2013-01-10 05:56:00,